IZ3VCM Weather Reports


Display with metric or nautical units.
time (UTC)temp
F
wind
direction
speed
MPH
gust
MPH
rain 1hr
in
rain 24hr
in
rain mn
in
humidity
%
barometer
mb
20260903124506 95 23 0.0 1.0 0.00 0.00 0.00 42 1017.6
20260903123008 94 0 0.0 0.0 0.00 0.00 0.00 44 1017.7
20260903121506 94 23 1.0 6.0 0.00 0.00 0.00 44 1017.6
20260903120008 93 23 2.0 4.0 0.00 0.00 0.00 46 1017.6
20260903114506 93 23 1.0 4.0 0.00 0.00 0.00 44 1017.7
20260903113008 92 1 1.0 2.0 0.00 0.00 0.00 47 1017.9
20260903111506 92 13 1.0 3.0 0.00 0.00 0.00 44 1018.1
20260903110008 92 45 3.0 5.0 0.00 0.00 0.00 48 1018.4
20260903104506 92 107 0.0 4.0 0.00 0.00 0.00 47 1018.4
20260903103007 92 45 1.0 4.0 0.00 0.00 0.00 47 1018.5
20260903101506 92 45 1.0 2.0 0.00 0.00 0.00 48 1018.8
20260903100007 92 68 0.0 1.0 0.00 0.00 0.00 48 1018.9
20260903094506 92 45 2.0 4.0 0.00 0.00 0.00 48 1019.1
20260903093007 91 46 0.0 2.0 0.00 0.00 0.00 49 1019.1
20260903091506 90 68 0.0 2.0 0.00 0.00 0.00 53 1019.2
20260903090008 90 90 0.0 1.0 0.00 0.00 0.00 53 1019.2
20260903084505 89 23 1.0 3.0 0.00 0.00 0.00 54 1018.9
20260903083008 88 23 1.0 2.0 0.00 0.00 0.00 55 1019.1
20260903081506 86 68 1.0 3.0 0.00 0.00 0.00 59 1019.1
20260903080007 85 62 1.0 2.0 0.00 0.00 0.00 60 1019.0
20260903074506 83 45 2.0 3.0 0.00 0.00 0.00 62 1019.1
20260903073007 83 45 1.0 4.0 0.00 0.00 0.00 63 1018.7
20260903071505 82 45 0.0 2.0 0.00 0.00 0.00 64 1018.7
20260903070009 83 0 0.0 0.0 0.00 0.00 0.00 62 1018.7
20260902221506 74 0 0.0 0.0 0.00 0.00 0.00 75 1017.1
20260902220009 74 0 0.0 0.0 0.00 0.00 0.00 74 1017.0
20260902214506 74 135 1.0 2.0 0.00 0.00 0.00 73 1016.8
20260902213010 73 135 1.0 2.0 0.00 0.00 0.00 74 1016.7
20260902211507 74 0 0.0 0.0 0.00 0.00 0.00 71 1016.6
20260902210009 75 135 1.0 2.0 0.00 0.00 0.00 70 1016.7
20260902204507 76 135 1.0 3.0 0.00 0.00 0.00 68 1016.6
20260902203009 77 135 2.0 4.0 0.00 0.00 0.00 67 1016.7
20260902201507 77 135 1.0 2.0 0.00 0.00 0.00 66 1016.6
20260902200010 78 135 3.0 4.0 0.00 0.00 0.00 66 1016.5
20260902194506 78 135 2.0 4.0 0.00 0.00 0.00 65 1016.5
20260902193009 78 292 1.0 2.0 0.00 0.00 0.00 65 1016.5
20260902191506 76 0 0.0 0.0 0.00 0.00 0.00 68 1016.3
20260902190009 76 0 0.0 0.0 0.00 0.00 0.00 68 1016.2
20260902184506 76 0 0.0 0.0 0.00 0.00 0.00 67 1016.1
20260902183009 77 0 0.0 0.0 0.00 0.00 0.00 66 1015.9
20260902181507 77 0 0.0 0.0 0.00 0.00 0.00 65 1015.7
20260902180009 80 0 0.0 0.0 0.00 0.00 0.00 61 1015.6
20260902174506 81 0 0.0 0.0 0.00 0.00 0.00 60 1015.4
20260902173009 84 0 0.0 0.0 0.00 0.00 0.00 56 1015.2
20260902171506 87 0 0.0 0.0 0.00 0.00 0.00 52 1015.2
20260902170009 91 0 0.0 0.0 0.00 0.00 0.00 47 1015.2
20260902164506 92 0 0.0 0.0 0.00 0.00 0.00 47 1015.5
20260902163008 92 0 0.0 0.0 0.00 0.00 0.00 46 1015.4
20260902161506 93 292 0.0 1.0 0.00 0.00 0.00 46 1015.3
20260902160010 93 314 1.0 1.0 0.00 0.00 0.00 44 1015.7
20260902154506 94 270 0.0 3.0 0.00 0.00 0.00 45 1015.5
20260902153009 94 0 0.0 0.0 0.00 0.00 0.00 44 1015.5
20260902151506 93 295 3.0 6.0 0.00 0.00 0.00 44 1015.7
20260902150009 94 339 2.0 4.0 0.00 0.00 0.00 45 1015.8
20260902144507 93 0 0.0 0.0 0.00 0.00 0.00 46 1015.8
20260902143008 93 314 1.0 4.0 0.00 0.00 0.00 45 1016.1
20260902141506 93 22 2.0 3.0 0.00 0.00 0.00 45 1016.2
20260902140008 94 306 0.0 4.0 0.00 0.00 0.00 45 1016.6
20260902134506 92 23 0.0 2.0 0.00 0.00 0.00 47 1016.4
20260902133009 92 337 0.0 1.0 0.00 0.00 0.00 45 1016.4
20260902131506 93 0 0.0 0.0 0.00 0.00 0.00 45 1016.7
20260902130009 91 0 0.0 0.0 0.00 0.00 0.00 45 1016.7